User: anonymous   Login
Location: Newark
(20.1200°S, 168.9600°E)
Time: 11:33:40
(UTC+00:00)
Language:

BEESAT - Orbit

View from above orbital plane
View from above orbital plane
View from above satellite
View from above satellite

Ground track
Ground track

The orbit data is extracted from the following two-line orbital elements,

1 35933U 09051C   20028.77616723  .00000054  00000-0  23183-4 0  9999
2 35933  98.6025 208.4186 0005379 201.6908 158.4061 14.56433085549501
Epoch (UTC): 28 January 2020 18:37:40
Eccentricity: 0.0005379
inclination: 98.6025°
perigee height: 701 km
apogee height: 708 km
right ascension of ascending node: 208.4186°
argument of perigee: 201.6908°
revolutions per day: 14.56433085
mean anomaly at epoch: 158.4061°
orbit number at epoch: 54950

The dashed part of the orbit path shows where the satellite is in the earth's shadow,  

DLR